User: anonymous   Login
Location: Unspecified
(0.0000°N, 0.0000°E)
Time: 01:11:56
(UTC+00:00)
Language:

Vela 4A - Orbit

View from above orbital plane
View from above orbital plane
View from above satellite
View from above satellite

Ground track
Ground track

The orbit data is extracted from the following two-line orbital elements,

1 02765U 67040A   15244.43418628 -.00001199  00000-0  00000+0 0  9999
2 02765 005.0501 350.4481 4695543 195.8371 358.8218 00.21573588 37934
Epoch (UTC): 01 September 2015 10:25:13
Eccentricity: 0.4695543
inclination: 5.0501°
perigee height: 55912 km
apogee height: 166193 km
right ascension of ascending node: 350.4481°
argument of perigee: 195.8371°
revolutions per day: 0.21573588
mean anomaly at epoch: 358.8218°
orbit number at epoch: 3793

The dashed part of the orbit path shows where the satellite is in the earth's shadow,  

DLR